Location: Lane
(33.5226°N, 79.8788°W)
Time: 15:37:11
(UTC+00:00)

SR - Pass Details

Date: 04 October 2022
Orbit: 577 x 875 km, 66.7° (Epoch: 26 November)

Event Time Altitude Azimuth Distance (km) Brightness Sun altitude
Rises 00:41:30 0° 182° (S) 3,367 ? -21.7°
Reaches altitude 10° 00:44:05 10° 174° (S) 2,466 ? -22.2°
Enters shadow 00:45:32 17° 165° (SSE) 2,006 ? -22.5°
Maximum altitude 00:49:18 36° 109° (ESE) 1,337 - -23.3°
Drops below altitude 10° 00:54:38 10° 44° (NE) 2,528 - -24.4°
Sets 00:57:18 0° 36° (NE) 3,461 - -24.9°
